AirNav   Everest Fuels
 
 922 users online  

2IL9 Meadow Creek Airport
Monee, Illinois, USA

GOING TO MONEE?


FAA INFORMATION EFFECTIVE 26 JANUARY 2023

Location

FAA Identifier: 2IL9
Lat/Long: 41-26-00.0300N 087-46-52.8700W
41-26.000500N 087-46.881167W
41.4333417,-87.7813528
(estimated)
Elevation: 780 ft. / 238 m (estimated)
Variation: 01W (1990)
From city: 1 mile W of MONEE, IL
Time zone: UTC -6 (UTC -5 during Daylight Saving Time)
Zip code: 60449

Airport Operations

Airport use: Private use. Permission required prior to landing
Activation date: 09/1990
Control tower: no
ARTCC: CHICAGO CENTER
FSS: KANKAKEE FLIGHT SERVICE STATION
Attendance: UNATNDD
Wind indicator: yes
Segmented circle: no
Lights: SS-SR

Airport Communications

WX AWOS-AV at C56 (6 nm SE): 119.125 (708-534-5256)
WX AWOS-3PT at IGQ (13 nm NE): 119.275 (708-889-6319)
WX AWOS-3 at LOT (18 nm NW): 126.675 (815-588-4802)
WX AWOS-3 at JOT (18 nm W): 119.975 (815-730-9560)
WX AWOS-3PT at GYY (20 nm NE): 134.575 (219-944-0010)

Nearby radio navigation aids

VOR radial/distance  VOR name  Freq  Var
EONr001/9.8PEOTONE VORTAC113.2002E
CGTr242/10.5CHICAGO HEIGHTS VORTAC114.2002E
JOTr104/25.1JOLIET VOR/DME112.3002E
DPAr135/37.4DUPAGE VOR/DME108.4002E

Airport Services

Runway Information

Runway 4/22

Dimensions: 3400 x 40 ft. / 1036 x 12 m
Surface: asphalt
Runway edge lights: low intensity
RUNWAY 4  RUNWAY 22
Latitude: 41-25.784333N41-26.216667N
Longitude: 087-47.117167W087-46.645167W
Elevation: 770.0 ft.780.0 ft.
Traffic pattern: leftleft
Runway heading: 040 magnetic, 039 true220 magnetic, 219 true
Runway end identifier lights: yesyes

Airport Ownership and Management from official FAA records

Ownership: Privately-owned
Owner: MEADOW CREEK CORP
25245 S. DOOLITTLE DR
MONEE, IL 60449
Phone (312) 446-2163
Manager: CHRISTIAN THOMSEN
25245 S. DOOLITTLE DR
MONEE, IL 60449
Phone (312) 446-2163

Airport Operational Statistics

Aircraft based on the field: 13
Single engine airplanes: 12
Helicopters: 1
    

Additional Remarks

FOR CD CTC CHICAGO APCH AT 847-289-0926.

Instrument Procedures

There are no published instrument procedures at 2IL9.

Some nearby airports with instrument procedures:

C56 - Bult Field Airport (6 nm SE)
KIGQ - Lansing Municipal Airport (13 nm NE)
KLOT - Lewis University Airport (18 nm NW)
05C - Griffith-Merrillville Airport (18 nm E)
KGYY - Gary/Chicago International Airport (20 nm NE)
 
Loc | Ops | Rwys | IFR | FBO | Links
Com | Nav | Svcs | Stats | Notes
Area around 2IL9 (Meadow Creek Airport)
 
Road maps at: MapQuest Bing Google
 
Aerial photo
WARNING: Photo may not be current or correct
Aerial photo of 2IL9 (Meadow Creek Airport)
Photo taken 18-Mar-2007

Do you have a better or more recent aerial photo of Meadow Creek Airport that you would like to share? If so, please send us your photo.

 
Sectional chart

 
Airport distance calculator
Flying to Meadow Creek Airport? Find the distance to fly.

From to 2IL9

Sunrise and sunset
Times for 27-Jan-2023
 Local
(UTC-6)
 Zulu
(UTC)
Morning civil twilight06:3912:39
Sunrise07:0813:08
Sunset17:0023:00
Evening civil twilight17:2923:29

Current date and time
Zulu (UTC)  28-Jan-2023 01:59:39
Local (UTC-6)  27-Jan-2023 19:59:39
 
METAR
KIGQ 
13nm NE 
280135Z AUTO 25016G24KT 10SM CLR 00/M04 A2990 RMK AO2 T10011040
KJOT 
18nm W 
280135Z AUTO 27012G18KT 10SM CLR 00/M05 A2993 RMK AO2 T10021047
KLOT 
18nm NW 
280155Z 25017G25KT 10SM FEW025 M02/M04 A2992
KGYY 
20nm NE 
280145Z 27012G30KT 10SM BKN025 00/M04 A2990
KMDW 
21nm N 
280153Z 27018G27KT 10SM FEW028 M01/M06 A2990 RMK AO2 PK WND 26032/0136 SLP138 T10111061
KIKK 
22nm S 
280135Z AUTO 27015G19KT 10SM CLR 01/M02 A2995 RMK AO2 T00051025
TAF
KGYY 
20nm NE 
272111Z 2721/2818 22015G24KT 5SM -SHSN OVC015 FM272300 26018G30KT P6SM OVC018 TEMPO 2723/2802 27022G35KT FM280400 26005KT P6SM SCT015 BKN250
KMDW 
21nm N 
272107Z 2721/2824 23015G26KT 5SM -SHSN SCT009 OVC012 FM272300 26018G30KT P6SM OVC018 TEMPO 2723/2802 27022G35KT FM280400 28010KT P6SM SCT015 BKN250 FM281700 09004KT 4SM -SN SCT015 OVC035 FM282000 07010KT 1 1/2SM -SN BR OVC008
NOTAMs
Click for the latest NOTAMs
NOTAMs are issued by the DoD/FAA and will open in a separate window not controlled by AirNav.

 

 
 

Would you like to see your business listed on this page?

 If your business provides an interesting product or service to pilots, flight crews, aircraft, or users of the Meadow Creek Airport, you should consider listing it here.  To start the listing process, click on the button below
 
Add a business
 

Other Pages about Meadow Creek Airport

www.meadowcreekairpark.com
 
Update a link
 
Copyright © AirNav, LLC. All rights reserved. Privacy Policy  Contact